Regional Weather Roundup
Issued by NWS Newport/Morehead, NC

Current Version | Previous Version | Graphics & Text | Print | Product List | Glossary Off
Versions: 1 2 3 4 5 6 7 8 9 10 11 12 13 14 15 16 17 18 19 20 21 22 23 24 25 26 27 28 29 30 31 32 33 34 35 36 37 38 39 40 41 42 43 44 45 46 47 48 49 50

000
ASUS42 KMHX 261913
RWRMHX
WEATHER ROUNDUP FOR EASTERN NORTH CAROLINA
NATIONAL WEATHER SERVICE NEWPORT/MOREHEAD CITY NC
300 PM EDT SUN MAR 26 2017

NOTE: "FAIR" INDICATES FEW OR NO CLOUDS BELOW 12,000 FEET
WITH NO SIGNIFICANT WEATHER AND/OR OBSTRUCTIONS TO VISIBILITY

NCZ015>017-031-032-045>047-102-103-262000-
NORTH COAST

CITY           SKY/WX    TMP DP  RH WIND       PRES   REMARKS
EDENTON        NOT AVBL
ELIZABETH CITY PTSUNNY   72  55  55 E13       30.22F
KITTY HAWK     NOT AVBL
MANTEO         MOSUNNY   72  52  50 S13       30.23F

$$

NCZ045>047-081-094-103-104-262000-
CENTRAL COAST

CITY           SKY/WX    TMP DP  RH WIND       PRES   REMARKS
FRISCO         MOSUNNY   77  54  44 S5        30.24F

$$

NCZ095-097-098-100-101-262000-
SOUTHERN COAST

CITY           SKY/WX    TMP DP  RH WIND       PRES   REMARKS
BEAUFORT       CLOUDY    73  57  57 SE8       30.22F
CEDAR ISLAND   NOT AVBL
JACKSONVILLE   PTSUNNY   74  53  48 S14       30.20F
PINEY ISLAND   CLOUDY   N/A N/A N/A S8        30.23F
WILMINGTON     CLOUDY    73  54  51 SE9       30.20F


$$

NCZ011>013-027>030-043-044-078>080-089-090>093-098-262000-
COASTAL PLAIN

CITY           SKY/WX    TMP DP  RH WIND       PRES   REMARKS
AHOSKIE        NOT AVBL
CLINTON        CLOUDY    73  56  56 SE5       30.19F
ELIZABETHTOWN  PTSUNNY   75  53  45 S8        30.18F
GOLDSBORO      CLOUDY    74  50  42 S6        30.17F
GREENVILLE     CLOUDY    73  50  43 SE6       30.21F
HAVELOCK       CLOUDY    73  54  51 S13G21    30.02F
KENANSVILLE    CLOUDY    73  54  49 SE7       30.19F
KINSTON        PTSUNNY   77  50  38 S9        30.20F
NEW BERN       PTSUNNY   75  52  44 S10G18    30.21F
RICHLANDS      CLOUDY    75  52  44 S10       30.20F
ROCKY MOUNT    CLOUDY    74  53  48 S6        30.19F
WASHINGTON     CLOUDY    73  52  49 SE7       30.21F
WHITEVILLE     MOSUNNY   76  53  44 SE13G21   30.17F

$$

AMZ130-135-150-152-154-156-158-170-250-252-270-ANZ085-086-088-633-658-670-262000-
MARINE OBSERVATIONS

STATION/POSITION TIME  TEMP    WIND        PRES    WAVE   SWELL
                       AIR SEA DIR/SP/G            HT/PER HT/PER
                 (UTC) (F)     (DEG/KT/KT) (MB)    (FT/S) (FT/S)
CHESAPEAKE LIGHT NOT AVBL
64 E VA BEACH    1850   57 52   60/  4/  6 1024.5    2/ 5   2/ 5
DUCK             1842   62 48  110/  6/  7 1023.6
2 E DUCK         1900      53                N/A     2/18
OREGON INLET     1848          180/  7/  9   N/A
13E OREGON INLT  1848      54                N/A     2/ 8   2/ 8
HATTERAS CG      1842   71 58  160/  5/  6 1023.7
DIAMOND BUOY     1850   70 75  160/  8/ 10 1024.0    3/ 8   3/ 8
CAPE LOOKOUT     1900   65     120/  7/  7 1023.2
BEAUFORT LAB     1842   69 56  140/  8/ 10 1022.8
30 SE NEW RVR IN 1808   69     130/  2/  6 1024.0
30 SE NEW RVR IN 1843      67                N/A     3/ 7
27 SE WRIGHTSVLE 1808   69 65  140/  4/  6 1022.9
5 SE WRIGHTSVLE  1808   64 60  100/  6/  8 1023.3
225 S CAPE HAT   1850   68 72   80/ 12/ 16 1023.2    5/ 9   5/ 9
41 SE CHARLESTON 1850   72 73  140/ 10/ 12 1021.8    4/ 9   3/ 9

$$




USA.gov is the U.S. government's official web portal to all federal, state and local government web resources and services.